CZ-4C DEB, 43261

Orbit data source: Space-Track

CZ-4C DEB, 43261 is space debris in SSO originally from a launch on Sat, 31 Mar 2018 UTC launched from the Taiyaun Space Center, China (TSC). Debris objects in space refer to the collection of defunct objects orbiting the Earth. Examples of debris include non-operational satellites, rocket bodies, and fragments generated from explosions, collisions, or faulty payload assembly.

Loading next visibility...
Identifier
43261, 2018-031C
Orbit
SSO
Country
Flag of CNCN / PRC
Related business
Manufacturer
Unknown
Mission
Spacecraft
Bus & Motor
Unknown
Mass
Unknown
Launch date (UTC)
2018-03-31 (8 years ago)
Launch vehicle
Unknown
Launch site
Taiyaun Space Center, China (TSC)
Object type
Payload
Rocket body
Debris
Shape & HBR
Unknown shape, 3.0 m
Radar Cross Section
Large (>1 m²)

Expand to show TLE details & history
Last TLE update: 4 hours ago

TLE from 4 hours ago
0 CZ-4C DEB
1 43261U 18031C   26035.18240966  .00010046  00000-0  82279-3 0  9993
2 43261  97.7950 119.3200 0002694  19.2615 340.8709 14.99487173424460
Epoch: 2026-02-04T04:22Z
TLE epoch observation values (Epoch: 2026-02-04T04:22:40.194Z)
Latitude
-0.00005°
Longitude
-80.70013°
Altitude
569.762 km
Speed
7.577 km/s
True Right ascension
07h 57m 16s
True Declination
0° 00' 00"
Sunlit
Object was in full shadow at epoch
Visualization orbit readout
Latitude
Unknown
Longitude
Unknown
Altitude
Unknown
Speed
Unknown
Apparent Right ascension
Unknown
Apparent Declination
Unknown
Sunlit
N/A
Visualization observer readout
Local Sidereal Time
10:06:23
Azimuth
Unknown
Elevation
Unknown
Doppler factor
Unknown
Orbital elements
Apogee altitude
567.361 km
Perigee altitude
563.619 km
Semi-major axis
6,943.627 km
Eccentricity
0.00027
Inclination
97.795°
RAAN
119.32°
Arg. of periapsis
19.2615°
True anomaly
340.86078°
Mean anomaly
340.8709°
Eccentric anomaly
340.86584°
Mean motion
3.75114 °/min
Orbital period
95.97 mins
BSTAR
0.00082279
Loading maneuver chart data...
Computing Atmospheric mass density...
Loading historical data...
Loading historical data...
Loading historical data...
Loading historical data...
Loading historical data...
Loading historical data...
Loading historical data...

Documentation

Showing up to 5 results
|